Content
SEND FEEDBACK

Daily
Averages
Monthly
Summary
United States of America

TAMUNING, GUAM


Home > North America > United States > Guam
Elevation: 76 meters     Latitude: 13 29N     Longitude: 144 47E

WEATHER
 
SELECT A DAY
Number of Records: 342,579;   Date Range: 1/1/95 - 9/18/14
 
SHARE

PRINT THIS DATA

[ ← Previous Day ]
WEATHER ALMANAC - 8 MARCH, 2013
[ Next Day → ]
[ °F ]   °C
Weather ElementAverageHighLow
Temperature26.2 °C29.1 °C (10:55 am)24 °C (5:20 am)
Dewpoint22.1 °C23 °C (6:45 am)21.7 °C (1:55 am)
Humidity78.3 %89 % (5:20 am)65 % (10:55 am)
Barometer1012.2 hPa1014.2 hPa (8:50 am)1009.5 hPa (3:55 pm)
Wind Speed25.1 km/h33.3 km/h (8:50 am)
Wind Gust38.9 km/h (2:55 am)
Weather ElementAverage
Visibility15.9 km
Wind DirectionENE (81.5 °)

Weather ElementTotal
Precipitation---
Cooling Degree Days8.2 (Base 18.3)
Growing Degree Days16.6 (Base 10)
Averaged from 52 records on 8 March, 2013
WEATHER CONDITIONS BREAKOUT
WIND DIRECTION BREAKOUT
WEATHER BY HOUR - 8 MARCH, 2013
[ °F ]   °C
Local TimeTemperatureDewpointHumidityBarometerVisibilityWind DirectionWind SpeedGust SpeedPrecipitationEventsConditions
1:55 AM25.3 °C21.7 °C80 %1012.2 hPa16.1 kmENE (70°)27.8 km/hClear
2:55 AM25.2 °C21.7 °C81 %1011.5 hPa16.1 kmENE (70°)27.8 km/h38.9 km/hClear
3:55 AM25.2 °C21.8 °C81 %1011.2 hPa16.1 kmENE (70°)24.1 km/hPartly Cloudy
4:11 AM25 °C22 °C83 %1011.5 hPa14.5 kmENE (70°)22.2 km/hRainLight Rain
4:22 AM25 °C22 °C83 %1011.5 hPa16.1 kmENE (70°)27.8 km/h37 km/hScattered Clouds
4:32 AM25 °C22 °C83 %1011.5 hPa16.1 kmENE (70°)27.8 km/h37 km/hMostly Cloudy
4:39 AM25 °C22 °C83 %1011.5 hPa16.1 kmEast (80°)27.8 km/h35.2 km/hLight Drizzle
4:55 AM24.7 °C22.3 °C86 %1011.5 hPa12.9 kmEast (90°)25.9 km/h0 mmRainLight Rain
5:20 AM24 °C22 °C89 %1011.9 hPa16.1 kmENE (70°)24.1 km/hMostly Cloudy
5:55 AM24.6 °C22.4 °C87 %1011.9 hPa16.1 kmEast (80°)27.8 km/h0 mmPartly Cloudy
6:45 AM25 °C23 °C89 %1012.9 hPa16.1 kmEast (80°)29.6 km/h38.9 km/hMostly Cloudy
6:55 AM25.2 °C22.8 °C86 %1012.9 hPa16.1 kmEast (80°)22.2 km/h38.9 km/hMostly Cloudy
7:12 AM25 °C22 °C83 %1012.9 hPa16.1 kmEast (80°)27.8 km/h35.2 km/hMostly Cloudy
7:15 AM25 °C22 °C83 %1013.2 hPa16.1 kmEast (80°)31.5 km/hMostly Cloudy
7:17 AM26 °C22 °C78 %1013.2 hPa16.1 kmEast (80°)25.9 km/hMostly Cloudy
7:20 AM26 °C22 °C78 %1013.2 hPa16.1 kmEast (90°)27.8 km/hMostly Cloudy
7:22 AM26 °C22 °C78 %1013.2 hPa16.1 kmEast (80°)25.9 km/hMostly Cloudy
7:29 AM26 °C22 °C78 %1013.2 hPa16.1 kmEast (80°)29.6 km/hLight Drizzle
7:38 AM26 °C22 °C78 %1013.5 hPa16.1 kmEast (80°)29.6 km/hScattered Clouds
7:55 AM26.2 °C22.1 °C78 %1013.5 hPa16.1 kmEast (80°)31.5 km/h38.9 km/h0 mmPartly Cloudy
8:50 AM27 °C23 °C79 %1014.2 hPa16.1 kmEast (90°)33.3 km/hMostly Cloudy
8:52 AM27 °C23 °C79 %1013.9 hPa16.1 kmEast (90°)31.5 km/hScattered Clouds
8:53 AM27 °C23 °C79 %1014.2 hPa16.1 kmEast (90°)29.6 km/hMostly Cloudy
8:55 AM27 °C22.6 °C77 %1014.2 hPa16.1 kmEast (90°)29.6 km/hMostly Cloudy
9:19 AM28 °C22 °C70 %1014.2 hPa16.1 kmEast (80°)29.6 km/h38.9 km/hMostly Cloudy
9:55 AM28.2 °C21.8 °C68 %1013.9 hPa16.1 kmEast (90°)31.5 km/hClear
10:55 AM29.1 °C21.8 °C65 %1013.2 hPa16.1 kmEast (100°)29.6 km/h37 km/hClear
11:55 AM29 °C22.5 °C68 %1012.5 hPa16.1 kmEast (80°)29.6 km/hClear
12:55 PM28.9 °C22.2 °C67 %1011.5 hPa16.1 kmEast (90°)27.8 km/hClear
1:55 PM29.1 °C22.6 °C68 %1010.5 hPa16.1 kmENE (70°)25.9 km/hPartly Cloudy
2:55 PM29 °C22.2 °C67 %1009.8 hPa16.1 kmENE (70°)27.8 km/hClear
3:55 PM28.5 °C22.5 °C70 %1009.5 hPa16.1 kmEast (80°)25.9 km/hPartly Cloudy
4:55 PM27.6 °C22.3 °C73 %1009.5 hPa16.1 kmEast (80°)27.8 km/hClear
5:55 PM26.6 °C22.2 °C77 %1010.2 hPa16.1 kmENE (70°)24.1 km/hClear
6:55 PM25.6 °C21.8 °C79 %1010.8 hPa16.1 kmEast (80°)20.4 km/hClear
7:24 PM26 °C22 °C78 %1011.2 hPa16.1 kmEast (80°)22.2 km/hMostly Cloudy
7:29 PM26 °C22 °C78 %1011.2 hPa16.1 kmEast (80°)20.4 km/hScattered Clouds
7:43 PM26 °C22 °C78 %1011.2 hPa16.1 kmEast (80°)18.5 km/hMostly Cloudy
7:47 PM26 °C22 °C78 %1011.2 hPa16.1 kmEast (80°)20.4 km/hScattered Clouds
7:55 PM25.6 °C21.8 °C79 %1011.5 hPa16.1 kmEast (90°)24.1 km/hPartly Cloudy
8:15 PM26 °C22 °C78 %1011.5 hPa16.1 kmEast (90°)22.2 km/hMostly Cloudy
8:26 PM26 °C22 °C78 %1011.9 hPa16.1 kmEast (90°)18.5 km/hScattered Clouds
8:28 PM26 °C22 °C78 %1011.9 hPa16.1 kmEast (80°)22.2 km/hMostly Cloudy
8:44 PM26 °C22 °C78 %1011.9 hPa16.1 kmEast (90°)20.4 km/hScattered Clouds
8:55 PM25.5 °C22.2 °C82 %1011.9 hPa16.1 kmEast (90°)16.7 km/hScattered Clouds
8:57 PM26 °C22 °C78 %1012.2 hPa16.1 kmEast (90°)18.5 km/hMostly Cloudy
9:20 PM26 °C22 °C78 %1012.2 hPa16.1 kmEast (100°)18.5 km/hScattered Clouds
9:55 PM25.6 °C21.9 °C80 %1012.5 hPa16.1 kmEast (80°)18.5 km/hScattered Clouds
9:57 PM26 °C22 °C78 %1012.5 hPa16.1 kmEast (80°)18.5 km/hMostly Cloudy
10:12 PM26 °C22 °C78 %1012.9 hPa16.1 kmEast (80°)20.4 km/hScattered Clouds
10:55 PM25.4 °C21.7 °C80 %1012.5 hPa16.1 kmEast (80°)20.4 km/hPartly Cloudy
11:55 PM25.1 °C21.8 °C82 %1012.9 hPa16.1 kmEast (80°)18.5 km/hClear
Hourly data recorded from PGUA, located 0 kilometers away from Tamuning, Guam







STORIES FROM OUR PARTNERS